Weather in Oslaba

Russia / Chuvash Republic     55˚39′05″N   46˚52′22″E
temp.,
°C
wind,
m/s
gust,
m/s
humid.,
%
clouds,
%
prec.,
mm/h
press.,
hPa
HPBL,
m
16 january, sat
sat1600:00−12˚ene61095100 0.2 1006310
03:00−12˚ne61095100 1.9 1002403
06:00−12˚ne61295100 4.7 998551
09:00−11˚ne51095100 6.7 996507
12:00−10˚nne5894100 1.5 995377
15:00−10˚nnw3595100 1.9 995218
18:00−13˚wnw3696100 0.3 996120
21:00−14˚w469696 0.5 998168
17 january, sun
sun1700:00−15˚w4896100 0.1 1000213
03:00−16˚w5896100 0.2 1002255
06:00−16˚w5995100 0.1 1003347
09:00−17˚w4896100 0.2 1006290
12:00−17˚wnw4694100 0.1 1009386
15:00−20˚w349899 0.1 101173
18:00−24˚nw339995 0.0 101430
21:00−26˚w1210075 0.0 101619
18 january, mon
mon1800:00−27˚nw229818 0.0 101719
03:00−28˚wnw1110030 0.0 101819
06:00−29˚wnw1110077 0.0 101819
09:00−28˚nw119872 0.0 102019
12:00−24˚w129564 0.0 102089
15:00−25˚nnw119772 0.0 101920
18:00−26˚ssw1197100 0.0 101920
21:00−26˚nw1196100 0.0 102020
19 january, tue
tue1900:00−24˚ne1195100 0.0 101920
03:00−23˚ne2295100 0.0 101949
06:00−22˚ne2496100 0.0 1018159
09:00−21˚ne2495100 0.0 1018178
12:00−19˚ne3592100 0.0 1018225
15:00−18˚nne3593100 0.0 1017244
18:00−18˚nne3696100 0.1 1017246
21:00−20˚nne3696100 0.1 1018168
20 january, wed
wed2000:00−22˚n3594100 0.0 1019113
03:00−24˚n4489100 0.0 101977
06:00−27˚nne34843 0.0 102141
09:00−26˚nne33822 0.0 102333
12:00−22˚nne23860 0.0 1024103
15:00−23˚n22850 0.0 102520
18:00−25˚nnw12840 0.0 102720
21:00−26˚sw11810 0.0 102720